Regional Weather Roundup
Issued by NWS

Home | Current Version | Previous Version | Text Only | Print | Product List | Glossary On
Versions: 1 2 3 4 5 6 7 8 9 10 11 12 13 14 15 16 17 18 19 20 21 22 23 24 25 26 27 28 29 30 31 32 33 34 35 36 37 38 39 40 41 42 43 44 45 46 47 48 49 50
000
ASUS43 KTOP 171708
RWRKS

WEATHER ROUNDUP FOR KANSAS
NATIONAL WEATHER SERVICE GOODLAND KS
1200 PM CDT THU JUN 17 2021

NOTE:  "FAIR" INDICATES FEW OR NO CLOUDS BELOW 12,000 FEET WITH NO
SIGNIFICANT WEATHER AND/OR OBSTRUCTIONS TO VISIBILITY.

KSZ001>006-013>018-027>032-041>047-171800-
NORTHWEST KANSAS

CITY           SKY/WX    TMP DP  RH WIND       PRES   REMARKS
GOODLAND       SUNNY     98  45  16 S16G25    29.97F
HAYS           SUNNY     94  59  31 S15       29.91F
HILL CITY      SUNNY     97  60  29 S9        29.90S HX  97
RUSSELL        SUNNY     94  59  31 S15       29.91S
$$

KSZ061>065-074>080-084>089-171800-
SOUTHWEST KANSAS

CITY           SKY/WX    TMP DP  RH WIND       PRES   REMARKS
DODGE CITY     SUNNY     95  56  26 SW17G25   29.99S
ELKHART        SUNNY     94  48  21 SW15      30.05F
GARDEN CITY    SUNNY     93  54  26 S16       29.97F
GREAT BEND     SUNNY     93  63  36 S16       29.94S
LIBERAL        SUNNY     94  55  26 SW21      30.02S
PRATT          SUNNY     95  55  26 SW21      29.98S
$$

KSZ066>073-081>083-090>101-171800-
SOUTHEAST KANSAS

CITY           SKY/WX    TMP DP  RH WIND       PRES   REMARKS
CHANUTE        SUNNY     95  69  42 SW12      29.98F HX 100
COFFEYVILLE    SUNNY     93  70  46 SW12      29.97S HX  99
HUTCHINSON     SUNNY     98  59  27 S14G26    29.95F HX  98
MEDICINE LODGE   N/A     97  60  29 SW12      29.96S HX  97
NEWTON         SUNNY     94  67  41 S14G21    29.99R HX  97
PARSONS        SUNNY     94  69  44 W10G17    29.99F HX  99
WICHITA INTL   MOSUNNY   93  67  42 S10       29.97F HX  96
WICHITA JABRA  SUNNY     92  67  43 S9G20     29.98S HX  95
WINFIELD       SUNNY     94  69  44 S12       30.00F HX  99
$$

KSZ007>012-019>026-033>040-048>060-102>105-171800-
NORTHEAST KANSAS

CITY           SKY/WX    TMP DP  RH WIND       PRES   REMARKS
CONCORDIA      SUNNY     95  62  33 S15G24    29.90F HX  96
EMPORIA        SUNNY     95  68  41 SW12      29.96F HX  99
LAWRENCE       PTSUNNY   91  71  51 SE8       29.95F HX  97
MANHATTAN      SUNNY     98  66  34 SW15G21   29.90F HX 101
MARYSVILLE     SUNNY     91  70  49 S13       29.91S HX  97
OLATHE IND     MOSUNNY   90  69  50 VRB5      29.99R
OLATHE EXE     MOSUNNY   93  69  45 N3        29.98S HX  98
SALINA         SUNNY     98  61  29 S18G32    29.92F HX  98
TOPEKA BILLARD MOSUNNY   94  69  44 VRB3      29.94R HX  99
TOPEKA FORBES  MOSUNNY   94  73  50 S10       29.94S HX 103
$$



USA.gov is the U.S. government's official web portal to all federal, state and local government web resources and services.